吉利星座1组08星 (GEESAT-1 08)

导读

GEESAT 1-08是吉利科技集团旗下时空道宇研制的GEESAT 1系列卫星之一,由中国于北京时间2022年6月2日8时在西昌卫星发射中心发射,成功进入近地轨道。GEESAT 1是中国首个模块化、高韧性、高性能批量生产的低轨商业卫星,GEESAT 1-08同其余八颗卫星一同作为首发组网星,将推动我国低轨卫星互联网建设,服务智能出行等商用领域。

Basic Information
目录编号:
52792
目录名称:
GEESAT 1-08
国际标识:
2022-058H
轨道中心:
EARTH
卫星名称:
吉利星座1组08星
卫星全名:
吉利星座1组08星 (GEESAT-1 08)
卫星状态:
在轨 (已飞行1517 天)
发射日期:
2022-06-02 UTC
国别 :
中国 (CN)
星等 :
--
Orbit Information
数据来源 国际轨道数据 AOE轨道数据
星历时间 2026-07-28T09:22:46+0800
13小时前
查看轨道信息
2026-07-26T08:00:00+0800
2天前
查看轨道信息
半长轴 7002.673km 7002.71km
偏心率 0.0019998 0.0020123
轨道倾角 49.994° 49.996°
近地点辐角 87.076° 79.046°
升交点赤经 12.786° 22.291°
平近点角 273.247° 99.926°
近地点 610.532km 610.481km
远地点 638.54km 638.665km
周期 97.198分钟 97.198分钟
每日圈数 14.815183 14.815065
Detailed Information
平衡模式:
三轴稳定
覆盖范围:
全球
运营商:
时空道宇科技有限公司
运营商所在国:
中国
制造商(研发单位):
时空道宇科技有限公司
制造商所在国:
中国
使用方式:
暂无
Satellite Introduction
吉利星座(GeeSAT)也称“吉利未来出行星座”,由吉利旗下时空道宇自主研发,布局硬核科技生态,赋能智慧出行、无人系统、智慧城市等领域,并将全面提升吉利控股旗下极氪、领克、远程新能源商用车等品牌的用户智能出行体验。通过“吉利未来出行星座”建设,吉利控股集团将构建天地一体化高精时空信息系统。该卫星仍在工作。
2D Orbit Map
3D Orbit Map
Orbit Altitude Analysis Chart
Orbit Inclination Analysis Chart
Orbit Comprehensive Analysis Chart
View Comprehensive Chart